User: anonymous   Login
Location: Sun City Center
(27.6996°N, 82.3528°W)
Time: 00:23:51
(UTC-04:00)
Language:

Cosmos 2084 Rocket - Orbit

View from above orbital plane
View from above orbital plane
View from above satellite
View from above satellite

Ground track
Ground track

The orbit data is extracted from the following two-line orbital elements,

1 20666U 90055D   15184.81416505  .00000478  00000-0  61962-4 0  9995
2 20666 062.7859 011.5957 0104365 037.1634 323.6624 14.90959322354620
Epoch (UTC): 03 July 2015 19:32:23
Eccentricity: 0.0104365
inclination: 62.7859°
perigee height: 522 km
apogee height: 668 km
right ascension of ascending node: 11.5957°
argument of perigee: 37.1634°
revolutions per day: 14.90959322
mean anomaly at epoch: 323.6624°
orbit number at epoch: 35462

The dashed part of the orbit path shows where the satellite is in the earth's shadow,  

DLR